Temp
25 24 23 22 21 21 21 21 22 22 22 22 21 20 20 19 19 19 19 18 18 18 18 18 18 17 17 17 17 17 17 17 16 16 16 16 16 16 15 16 16 16 15
25 24 22 21 21 21 21 21 21 21 21 21 21 21 20 19 19 19 19 18 18 17 17 17 17 17 17 17 16 17 16 16 16 16 16 16 16 16 16 15 15 15 15
24 24 22 21 21 20 20 20 21 21 21 21 21 21 20 20 19 19 19 18 18 17 17 17 17 17 16 16 16 16 16 16 16 16 16 16 16 16 15 15 15 15 15
23 23 22 21 21 20 20 20 21 21 20 20 20 20 20 20 19 19 18 18 18 17 17 16 17 17 16 16 16 16 16 16 16 16 16 16 15 15 15 15 15 15 15
24 23 22 21 21 20 20 20 20 20 19 19 20 19 19 19 19 18 18 18 18 17 17 17 16 16 16 16 16 16 16 16 16 16 15 15 15 15 15 15 15 15 15
25 23 23 21 21 20 20 20 20 20 19 19 19 19 19 18 18 18 17 17 17 17 17 17 16 16 16 16 16 16 16 16 15 15 15 15 15 14 15 15 15 14 14
24 24 22 22 21 21 20 20 20 19 19 18 18 18 18 18 18 17 17 17 17 16 16 16 16 15 15 16 16 15 15 16 16 15 15 14 15 14 14 14 14 14 14
24 23 22 22 22 21 21 21 20 19 19 18 18 18 18 17 17 17 17 17 16 15 16 15 15 15 15 15 15 15 16 15 15 15 14 14 14 14 14 14 14 14 14
22 22 22 22 22 21 21 21 20 20 19 18 18 17 17 17 17 16 16 16 16 16 15 15 16 15 15 14 14 15 14 15 14 14 14 14 14 14 14 14 14 14 14
22 22 21 21 21 21 21 21 21 21 20 19 18 18 17 16 16 16 16 16 16 15 15 15 15 15 15 15 14 13 14 15 13 14 13 13 14 14 14 14 14 14 14
20 20 21 20 20 20 20 21 20 20 20 19 19 18 17 16 16 16 15 15 15 15 15 15 14 14 14 15 15 13 14 15 14 13 13 13 14 14 14 14 13 13 13
19 20 20 20 21 21 21 20 20 20 20 20 19 18 18 17 16 16 15 15 15 14 14 14 14 14 14 15 14 13 14 14 13 13 13 13 14 14 13 13 13 12 13
19 19 20 20 21 21 20 20 20 20 20 20 20 19 18 17 16 16 15 14 14 14 14 14 14 13 13 14 13 14 14 14 13 13 13 13 13 14 13 13 13 13 12
19 19 19 20 19 20 20 20 20 20 20 20 20 19 18 17 16 16 15 14 14 14 14 14 14 13 13 13 13 13 13 13 13 12 13 13 13 13 13 13 13 13 12
20 20 19 19 19 18 19 20 20 20 20 20 19 20 19 18 17 16 15 14 14 14 14 14 14 14 13 13 13 13 13 13 12 12 13 13 13 13 13 13 12 12 11
20 20 20 19 19 18 18 19 20 20 20 20 20 19 20 18 17 16 15 15 14 14 14 14 14 14 14 13 12 11 11 12 12 12 13 13 13 12 12 13 12 12 11
20 20 20 20 20 19 19 19 19 19 19 19 19 19 18 18 17 16 15 14 14 14 14 13 13 13 13 13 12 11 12 12 12 12 13 13 13 12 12 12 12 12 11
19 19 19 20 20 20 19 19 18 19 19 18 19 18 18 18 17 16 15 14 14 13 13 13 13 13 12 12 12 12 12 11 11 12 12 12 12 12 12 12 11 11 11
17 18 18 19 19 20 20 19 19 19 18 18 18 17 17 17 16 15 15 14 13 13 13 13 13 13 12 12 12 12 12 11 11 12 12 12 12 12 12 12 12 12 10
17 18 18 18 19 19 19 19 19 19 19 18 17 17 17 16 16 15 14 13 13 13 13 13 12 12 12 12 12 11 12 11 11 11 12 12 12 12 12 12 12 11 10
16 18 18 17 19 19 18 18 19 18 18 18 17 17 16 16 15 15 14 14 13 13 12 12 12 12 11 11 11 10 10 10 11 11 11 11 12 12 11 11 11 10 9
15 16 17 18 17 19 19 19 18 19 18 18 17 15 17 16 15 15 14 13 13 12 12 12 12 11 11 11 10 10 10 10 11 10 11 11 11 11 11 11 10 9 9
12 13 16 17 17 18 18 18 18 18 17 17 18 17 16 16 16 14 13 13 13 12 11 11 11 11 11 11 11 11 10 10 10 10 10 10 10 10 11 10 10 9 8
11 12 14 16 18 16 17 17 18 19 19 19 19 17 14 13 16 14 13 12 12 11 11 11 11 10 10 11 11 10 11 11 10 9 9 10 9 10 10 10 9 9 8
8 9 12 15 17 15 16 17 18 18 19 19 17 17 15 14 14 14 12 12 12 11 11 11 11 10 10 10 11 11 11 10 11 11 9 9 9 9 10 10 9 9 9
7 8 10 12 16 15 15 17 17 18 17 16 17 17 18 15 14 13 12 11 12 12 11 11 11 10 10 10 11 11 10 10 10 10 11 9 9 9 10 10 10 9 9
Height
1467 1472 1475 1478 1481 1484 1487 1489 1490 1493 1494 1494 1497 1500 1504 1506 1508 1510 1513 1515 1518 1521 1523 1524 1526 1528 1529 1531 1532 1534 1535 1537 1539 1540 1541 1542 1544 1544 1546 1547 1548 1549 1551
1465 1469 1473 1477 1481 1483 1486 1488 1491 1493 1494 1495 1496 1498 1501 1505 1508 1510 1512 1514 1518 1520 1522 1524 1526 1527 1530 1531 1532 1534 1536 1537 1539 1541 1542 1543 1544 1545 1547 1548 1549 1551 1553
1466 1469 1473 1477 1480 1483 1486 1488 1490 1494 1495 1497 1497 1498 1500 1503 1506 1509 1511 1513 1515 1518 1521 1523 1525 1527 1529 1531 1532 1534 1535 1536 1539 1540 1542 1543 1544 1545 1547 1548 1550 1552 1554
1467 1470 1474 1477 1481 1483 1486 1489 1491 1493 1496 1496 1498 1498 1500 1502 1504 1507 1510 1512 1514 1516 1519 1522 1525 1527 1529 1530 1532 1534 1535 1538 1538 1541 1542 1543 1545 1547 1548 1550 1551 1553 1555
1467 1471 1474 1477 1480 1482 1485 1489 1491 1493 1495 1498 1499 1500 1500 1501 1503 1507 1509 1511 1513 1514 1517 1520 1523 1525 1528 1529 1532 1533 1534 1537 1538 1540 1542 1544 1545 1547 1549 1551 1552 1554 1556
1467 1471 1473 1476 1479 1482 1485 1487 1490 1492 1495 1497 1499 1500 1501 1502 1503 1506 1508 1511 1513 1514 1515 1518 1521 1524 1527 1528 1530 1532 1533 1534 1537 1539 1541 1543 1545 1548 1549 1552 1553 1555 1557
1466 1469 1472 1475 1479 1481 1484 1487 1489 1491 1493 1495 1498 1500 1502 1503 1504 1506 1508 1509 1512 1513 1514 1516 1519 1523 1525 1527 1528 1531 1533 1534 1536 1539 1540 1543 1545 1547 1549 1552 1554 1555 1557
1465 1468 1471 1474 1477 1480 1483 1486 1488 1491 1492 1495 1496 1498 1500 1503 1505 1505 1507 1509 1510 1512 1513 1516 1518 1521 1523 1525 1529 1530 1531 1534 1536 1538 1540 1542 1545 1548 1550 1551 1554 1555 1558
1465 1468 1470 1472 1474 1478 1481 1483 1486 1488 1491 1493 1495 1497 1498 1501 1504 1506 1507 1508 1509 1512 1513 1514 1516 1519 1521 1525 1529 1532 1531 1534 1537 1539 1540 1542 1544 1547 1549 1551 1554 1556 1558
1465 1467 1468 1471 1474 1476 1477 1481 1484 1485 1488 1490 1492 1494 1496 1499 1501 1504 1506 1506 1508 1510 1512 1513 1515 1518 1519 1521 1524 1531 1530 1530 1535 1540 1541 1541 1544 1546 1549 1551 1554 1555 1558
1465 1466 1468 1470 1473 1475 1478 1479 1481 1483 1485 1488 1490 1492 1493 1496 1498 1501 1503 1505 1506 1508 1511 1511 1514 1515 1518 1520 1521 1526 1527 1527 1532 1538 1540 1541 1542 1546 1548 1551 1553 1556 1558
1466 1466 1467 1469 1471 1473 1475 1477 1478 1480 1482 1484 1486 1489 1490 1492 1495 1497 1500 1503 1504 1506 1508 1509 1511 1513 1516 1518 1520 1523 1526 1528 1532 1536 1537 1539 1541 1544 1547 1550 1552 1556 1558
1465 1465 1466 1468 1469 1472 1474 1475 1476 1477 1479 1481 1482 1485 1487 1489 1491 1493 1496 1498 1500 1503 1505 1507 1508 1509 1513 1515 1518 1521 1523 1524 1529 1534 1536 1539 1541 1543 1545 1548 1552 1555 1558
1463 1465 1465 1466 1467 1468 1470 1473 1475 1474 1476 1477 1478 1481 1483 1485 1487 1489 1492 1494 1497 1500 1501 1503 1505 1507 1510 1513 1515 1518 1519 1521 1526 1531 1533 1536 1539 1543 1546 1548 1551 1553 1556
1458 1458 1462 1463 1463 1465 1466 1467 1469 1472 1472 1474 1476 1476 1478 1481 1484 1486 1488 1491 1493 1496 1498 1499 1501 1504 1507 1509 1512 1514 1516 1518 1521 1528 1532 1536 1539 1542 1544 1547 1549 1552 1555
1454 1455 1456 1456 1459 1461 1461 1464 1465 1467 1469 1470 1471 1473 1473 1477 1479 1481 1484 1487 1489 1492 1495 1497 1499 1500 1503 1506 1508 1510 1512 1516 1519 1526 1530 1534 1538 1542 1543 1545 1547 1551 1553
1445 1447 1448 1450 1451 1453 1456 1457 1460 1462 1465 1466 1467 1469 1471 1472 1475 1477 1481 1483 1485 1489 1491 1493 1495 1497 1500 1503 1505 1509 1511 1514 1518 1523 1528 1531 1536 1539 1542 1544 1546 1549 1551
1438 1438 1439 1440 1441 1444 1447 1450 1455 1457 1460 1461 1463 1464 1467 1469 1471 1473 1478 1480 1482 1485 1488 1490 1492 1495 1497 1500 1504 1508 1510 1513 1517 1520 1526 1528 1533 1536 1540 1542 1543 1546 1549
1430 1430 1430 1431 1431 1434 1437 1442 1446 1452 1454 1455 1458 1460 1463 1465 1467 1469 1474 1477 1479 1482 1484 1486 1489 1492 1495 1498 1502 1506 1508 1510 1515 1519 1524 1527 1531 1534 1536 1539 1541 1543 1546
1422 1420 1421 1422 1422 1424 1428 1432 1439 1443 1446 1449 1451 1455 1458 1461 1464 1466 1470 1473 1476 1478 1480 1482 1486 1489 1492 1496 1500 1504 1507 1508 1512 1516 1520 1524 1528 1531 1534 1536 1538 1540 1543
1414 1411 1411 1413 1415 1415 1417 1422 1428 1431 1435 1440 1441 1447 1452 1457 1460 1461 1465 1468 1471 1474 1477 1479 1482 1485 1490 1494 1498 1502 1504 1508 1509 1513 1516 1520 1524 1527 1531 1533 1534 1536 1539
1404 1402 1401 1403 1406 1406 1408 1412 1418 1424 1428 1432 1436 1442 1444 1449 1453 1456 1460 1463 1466 1470 1473 1475 1478 1481 1486 1489 1493 1497 1500 1504 1505 1509 1512 1516 1520 1524 1527 1529 1531 1533 1536
1396 1392 1392 1393 1394 1397 1399 1404 1409 1414 1420 1426 1433 1437 1441 1442 1444 1449 1455 1459 1461 1465 1467 1470 1474 1477 1481 1485 1487 1492 1494 1496 1499 1504 1506 1510 1514 1519 1523 1525 1528 1530 1533
1388 1384 1382 1383 1383 1387 1391 1395 1397 1402 1410 1416 1422 1428 1434 1433 1439 1442 1451 1454 1456 1459 1461 1464 1469 1472 1476 1478 1482 1485 1488 1491 1495 1500 1502 1505 1507 1513 1518 1521 1524 1527 1530
1383 1378 1374 1374 1373 1377 1382 1385 1389 1395 1402 1406 1414 1421 1431 1430 1428 1438 1446 1449 1451 1453 1456 1459 1464 1467 1470 1473 1475 1479 1483 1487 1490 1492 1495 1497 1504 1507 1512 1518 1521 1524 1526
1380 1373 1368 1366 1365 1370 1374 1378 1382 1388 1393 1399 1406 1411 1418 1418 1426 1435 1440 1443 1445 1447 1450 1454 1458 1461 1464 1468 1470 1473 1476 1479 1482 1486 1490 1493 1498 1502 1506 1514 1517 1520 1523
Wind_Speed
30 30 31 31 29 27 26 23 21 18 17 17 17 17 18 18 18 15 13 13 13 13 13 12 12 13 13 11 12 12 13 13 8 9 11 10 13 15 16 16 17 17 17
31 33 32 31 29 28 27 24 21 19 18 18 18 18 17 18 18 16 15 14 14 13 12 12 12 13 12 12 13 13 13 10 8 12 11 12 15 16 15 16 16 17 17
29 32 33 32 30 28 27 25 22 20 19 18 18 18 17 17 18 17 16 15 14 13 13 13 14 14 13 12 14 13 12 11 12 13 12 14 16 17 17 17 16 17 18
21 31 31 31 29 28 26 24 21 20 20 19 18 18 18 17 17 17 16 15 14 13 14 14 14 14 14 14 14 12 11 11 12 12 13 15 16 17 17 17 17 18 18
24 29 31 30 29 28 26 24 21 20 20 19 18 18 18 18 18 17 17 16 15 14 14 14 16 15 14 14 14 12 11 11 12 12 14 16 18 18 18 18 18 18 17
27 30 30 29 28 27 26 24 21 21 20 19 18 18 18 18 19 18 18 17 15 14 15 15 16 16 15 14 14 13 13 13 13 14 16 17 19 19 19 19 18 18 17
26 28 30 28 26 25 25 23 21 21 21 20 19 18 18 18 19 19 18 17 16 15 15 15 14 16 16 16 16 14 14 13 14 17 18 17 18 20 20 20 19 18 17
27 28 29 27 26 25 24 22 22 21 20 19 19 19 19 19 19 19 19 18 17 16 17 17 17 17 18 17 16 15 14 14 16 18 18 18 20 20 21 20 19 18 16
27 28 30 29 28 26 24 22 21 20 19 19 19 19 20 20 19 19 19 19 19 18 18 19 17 18 19 16 13 14 13 11 16 19 20 20 21 21 21 21 19 17 16
28 30 31 30 29 27 26 23 21 19 18 18 19 19 20 21 20 20 20 21 20 19 18 18 17 18 21 21 18 19 16 18 14 21 23 22 22 22 23 21 19 18 16
28 31 31 30 29 28 26 24 23 20 18 18 18 19 20 21 22 22 23 22 21 19 18 19 18 20 22 23 20 27 23 23 23 25 24 24 23 23 23 21 20 18 18
25 29 29 29 29 29 28 26 24 22 20 18 18 19 20 21 22 23 23 23 22 19 19 19 19 21 22 23 24 29 24 25 26 26 25 25 24 24 23 23 20 18 16
24 26 28 29 28 28 27 27 26 24 22 19 18 19 19 21 22 23 24 25 23 22 22 21 21 24 25 22 25 27 26 28 28 27 24 26 25 25 24 22 17 13 13
26 26 27 29 29 28 28 28 27 25 24 22 20 19 20 21 22 23 24 25 24 23 24 23 23 25 25 25 26 25 30 31 29 28 26 27 26 25 21 17 13 12 15
27 30 32 32 32 31 31 31 30 29 27 25 23 21 21 21 22 22 24 24 23 25 25 24 25 24 25 26 28 29 30 32 29 28 27 26 23 23 19 16 14 15 14
28 29 31 39 36 34 33 34 32 31 29 28 26 25 22 21 21 22 25 25 25 25 24 24 24 23 21 23 25 31 32 31 28 28 27 26 22 20 17 14 15 16 15
24 30 34 33 39 42 37 36 34 31 30 31 31 28 25 22 22 22 24 25 24 25 24 24 23 21 19 21 22 26 25 30 26 29 28 24 22 21 17 13 14 16 16
23 25 30 35 39 42 46 41 37 33 30 32 33 30 28 24 23 23 24 24 24 25 23 24 24 22 20 21 25 26 28 27 27 27 26 24 23 22 18 15 13 15 16
24 24 27 28 37 41 42 43 41 35 34 33 33 32 29 26 24 23 24 23 23 24 24 25 25 23 23 26 26 26 27 32 26 25 27 27 24 23 19 15 14 17 20
28 28 24 27 30 39 40 47 43 39 35 35 34 36 32 28 26 24 24 23 23 24 25 25 26 25 26 29 28 26 26 25 27 28 23 27 28 24 20 18 17 18 23
25 29 26 24 28 33 43 48 47 46 37 39 39 37 34 31 28 27 25 24 25 25 26 25 25 26 30 29 25 23 25 29 32 32 29 27 31 25 21 18 16 17 23
26 26 26 24 27 31 39 43 48 43 41 42 41 38 34 33 31 29 27 26 26 25 27 26 26 27 31 32 30 27 20 24 29 33 33 33 30 26 22 18 17 18 18
25 23 24 23 24 32 35 43 45 48 45 42 39 35 36 34 33 31 28 26 26 27 27 27 27 30 32 33 35 24 11 11 22 24 29 35 34 28 22 18 17 19 19
28 24 22 25 27 31 37 41 46 50 48 46 41 32 28 32 35 32 30 27 26 27 27 26 28 31 30 34 35 36 26 16 13 11 29 38 32 28 22 19 18 19 20
30 26 21 23 28 33 36 39 44 46 47 48 40 35 25 45 36 34 33 28 27 27 28 26 26 29 31 33 33 38 36 27 19 19 19 31 31 28 23 20 17 19 22
27 23 19 20 22 30 34 36 40 44 49 48 41 45 34 41 42 36 33 30 27 27 26 26 27 28 29 33 32 34 38 37 35 27 25 37 36 32 25 24 22 20 20
Wind_Direction
184 183 177 175 175 178 179 179 179 181 181 175 174 173 172 171 172 175 175 169 168 167 173 181 185 178 173 176 173 172 169 167 173 163 162 159 160 151 148 145 142 139 140
183 183 179 178 179 180 179 179 182 185 185 183 179 177 175 173 173 174 177 175 174 176 181 189 193 184 179 179 175 176 176 185 177 166 167 163 160 157 151 148 146 143 143
183 183 180 179 181 181 179 182 185 189 188 187 183 180 179 179 174 176 177 179 182 187 191 196 198 190 181 176 175 175 180 178 171 175 178 170 163 159 155 153 151 146 143
188 181 180 180 182 181 183 186 189 192 192 191 188 186 184 184 180 179 179 184 190 194 196 201 201 194 188 184 179 178 184 181 178 180 179 175 163 161 157 156 155 151 147
184 185 183 181 183 183 186 190 193 195 194 195 195 192 189 187 184 184 185 189 195 198 198 203 197 196 193 190 189 193 192 191 191 189 185 181 168 168 164 161 157 155 152
184 188 187 185 184 185 190 194 198 199 197 199 199 197 195 192 187 187 191 193 199 202 199 199 202 200 198 199 202 206 199 197 203 196 191 185 175 170 167 165 161 159 157
189 191 190 186 187 189 193 197 201 201 201 202 203 202 202 201 196 195 197 199 201 202 196 198 196 200 202 207 208 205 202 202 200 196 190 186 181 172 172 167 166 163 160
197 193 191 190 191 193 196 199 201 203 204 207 207 207 208 209 206 202 203 204 205 196 197 197 199 200 204 211 211 203 198 203 200 199 192 189 184 176 174 170 169 164 165
197 196 192 193 193 196 198 199 200 202 206 209 211 211 211 213 212 210 209 211 210 211 206 205 205 205 202 205 208 206 196 213 207 203 196 187 186 180 176 173 170 169 169
199 198 196 196 197 197 198 199 201 201 204 209 213 214 213 215 215 217 216 217 217 216 215 216 210 207 202 194 188 205 197 206 216 212 198 193 188 181 178 176 173 171 168
206 203 201 201 200 201 201 199 199 200 200 208 213 217 217 217 217 219 220 221 222 222 220 218 212 216 213 212 213 212 206 199 216 213 200 194 189 184 177 177 175 171 172
217 211 211 210 208 208 206 203 203 202 204 209 215 221 222 221 222 224 223 223 224 222 223 221 217 221 211 218 220 214 210 202 214 212 204 195 191 185 179 179 175 173 175
229 223 222 219 218 218 216 212 209 209 209 213 218 223 226 223 224 223 224 222 222 220 223 222 216 216 209 213 211 221 217 203 218 212 203 196 192 187 180 178 180 181 181
263 254 232 225 225 226 225 224 221 218 217 219 222 229 227 223 224 223 225 224 225 223 224 223 218 217 214 221 227 231 213 209 216 211 200 195 193 186 180 180 192 206 190
263 264 261 245 233 229 230 228 227 229 227 228 226 229 231 226 226 223 227 225 226 224 224 223 218 217 224 229 231 227 219 207 209 209 201 194 189 187 188 189 195 191 195
260 256 255 256 256 242 233 232 231 232 233 232 231 231 230 227 226 224 228 226 226 226 226 228 226 223 226 232 235 228 211 202 210 200 198 191 190 196 195 195 198 200 202
263 257 252 251 251 252 246 239 235 234 237 236 232 230 226 223 221 223 228 228 228 229 228 222 215 220 225 237 218 207 191 204 212 197 193 193 198 202 202 201 206 210 210
284 269 254 249 246 245 243 244 238 234 238 239 235 229 224 219 217 218 225 227 229 231 227 218 215 216 224 214 204 212 210 215 213 194 205 202 204 205 210 212 207 216 221
288 282 273 263 248 244 240 239 241 242 239 237 238 230 225 219 216 214 221 225 229 229 226 219 215 219 213 204 206 211 213 216 218 206 210 217 211 215 217 218 220 220 220
292 286 277 271 261 246 240 232 236 237 236 237 236 230 224 221 217 215 219 222 228 228 225 219 217 217 215 208 208 214 207 205 218 222 218 217 218 215 217 220 228 225 222
290 281 274 270 262 248 239 232 228 231 227 229 233 228 224 222 220 218 219 220 224 227 226 219 213 216 212 209 210 216 219 225 224 225 223 219 219 213 216 224 231 224 215
294 285 276 261 255 249 242 237 227 228 230 233 230 227 222 225 222 221 222 220 221 225 225 220 217 216 216 212 210 216 212 217 224 228 228 221 213 213 216 223 226 217 217
306 288 272 260 246 247 240 234 228 224 224 226 231 232 229 225 223 224 225 223 223 226 225 223 226 225 217 220 222 210 182 201 210 222 237 219 209 209 215 217 216 217 216
312 296 273 256 232 242 239 234 226 225 223 231 230 222 224 250 230 225 226 224 222 231 228 228 227 225 224 220 219 220 219 216 191 198 216 221 201 207 212 213 216 218 215
319 306 281 255 233 229 237 233 228 227 229 227 214 213 202 227 234 224 223 218 219 228 231 235 234 230 229 222 220 213 222 223 217 210 199 195 204 205 208 212 217 221 213
333 316 290 267 234 228 232 234 231 229 226 224 213 212 227 228 224 220 220 220 223 231 234 237 238 232 234 226 226 223 225 222 226 222 212 201 205 204 200 211 214 217 215